STARLINK-4527 (53436 NORAD) Tracking and Keplerian Element Data

This shows tracking and keplerian element data for the satellite.

Feedback or suggestion? Click here.




ElementValue
Catalog53436
NameSTARLINK-4527
Epoch Orbit130
Epoch Day324.91667824
Epoch Year2022
RAAN112.2386
Inclination53.2155
Eccentricity0.0001342
Argument of Perigee62.7272
Mean Anonmoly111.9777
Mean Motion15.08829315
Decay Rate-9.1E-07
L11 53436U 22097BA 22324.91667824 -.00000091 00000+0 12379-4 0 9993
L22 53436 53.2155 112.2386 0001342 62.7272 111.9777 15.08829315 1302



Live tracking and technical data element details for STARLINK-4527 (NORAD 53436). STARLINK-4527 can be tracked NOW for your location showing map with azimuth and elevation plus other details from your city location.







IsCatalogInMostPopularTable: catalog: 53436, numindb: 8
Update: records affected: 1



GetName: 53436 STARLINK-4527

Hit Count: updated at: Mon, 28 Nov 2022 23:59:41 GMT